Flag for Germany Weather past 2 weeks in Heidelberg, Baden-Württemberg, Germany

Now
45 °F

Sunny.


Feels Like: 45 °F
Forecast: 33 / 61 °F
Wind: 2 mph from North

Location: Baden Wurttemberg - Neuostheim


UV Index: 3 (Moderate)

Visibility: 10 mi


Pressure: 30.42 "Hg

Humidity: 61%

Dew point: 32 °F

Location of HeidelbergLocation

Historic Weather in Heidelberg

°F

Heidelberg temperature yesterday

Maximum temperature yesterday: 50 °F (at 4:50 PM)
Minimum temperature yesterday: 41 °F (at 6:50 AM)
Average temperature yesterday: 47 °F

Past Weeks' High & Low Weather Summary

 TemperatureHumidityPressure
High75 °F (Apr 4, 4:20 PM)100% (Apr 5, 7:20 AM)30.42 "Hg (Apr 5, 7:20 AM)
Low36 °F (Apr 16, 5:50 AM)19% (Apr 1, 4:50 PM)29.62 "Hg (Apr 3, 5:50 PM)
Average59 °F55%30.00 "Hg
* Reported Apr 1 9:20 AM — Apr 16 9:20 AM, Heidelberg, Weather by CustomWeather, © 2014

Note: Actual official high and low records may vary slightly from our data, if they occured in-between our weather recording intervals... More about our weather records

Advertising

Historic Weather Conditions — Data for Previous 24 hours

 ConditionsComfort  
Time TempWeatherWind HumidityBarometerVisibility
9:20 AM
Apr 16
45 °FPassing clouds.5 mph61%30.42 "HgN/A
8:50 AM41 °FSunny.6 mph70%30.42 "Hg10 mi
8:20 AM41 °FSunny.3 mph70%30.42 "Hg10 mi
7:50 AM37 °FSunny.5 mph81%30.39 "HgN/A
7:20 AM37 °FPassing clouds.5 mph75%30.39 "HgN/A
6:50 AM36 °FClear.5 mph81%30.39 "Hg10 mi
6:20 AM37 °FClear.5 mph81%30.39 "Hg10 mi
5:50 AM36 °FClear.5 mph81%30.36 "Hg10 mi
1:50 AM43 °FClear.3 mph66%30.33 "Hg10 mi
12:50 AM45 °FClear.3 mph61%30.33 "Hg10 mi
10:20 PM
Apr 15
46 °FClear.6 mph53%30.30 "Hg10 mi
9:50 PM48 °FClear.8 mph50%30.30 "Hg10 mi
9:20 PM48 °FClear.9 mph46%30.30 "Hg10 mi
8:50 PM48 °FPassing clouds.9 mph46%30.30 "HgN/A
8:20 PM48 °FPassing clouds.8 mph46%30.30 "HgN/A
7:50 PM48 °FSunny.8 mph46%30.27 "Hg10 mi
7:20 PM48 °FPassing clouds.9 mph43%30.27 "HgN/A
6:50 PM48 °FSunny.12 mph46%30.30 "Hg10 mi
6:20 PM48 °FPassing clouds.10 mph46%30.27 "HgN/A
5:50 PM48 °FPassing clouds.10 mph46%30.27 "HgN/A
5:20 PM48 °FOvercast.9 mph46%30.27 "HgN/A
4:50 PM50 °FPartly sunny.9 mph43%30.30 "HgN/A
4:20 PM48 °FPassing clouds.8 mph46%30.30 "HgN/A
3:50 PM48 °FSunny.10 mph46%30.30 "Hg10 mi
3:20 PM48 °FPartly sunny.9 mph46%30.30 "HgN/A
2:50 PM48 °FPartly sunny.10 mph46%30.30 "HgN/A
2:20 PM46 °FPartly sunny.12 mph50%30.30 "HgN/A
1:20 PM46 °FPartly sunny.9 mph46%30.30 "HgN/A
12:50 PM46 °FPartly sunny.10 mph46%30.30 "HgN/A
12:20 PM46 °FPartly sunny.14 mph53%30.30 "HgN/A
11:50 AM46 °FBroken clouds.13 mph53%30.30 "HgN/A
11:20 AM46 °FBroken clouds.12 mph50%30.30 "HgN/A
10:50 AM46 °FMore clouds than sun.12 mph53%30.30 "HgN/A
10:20 AM45 °FOvercast.12 mph61%30.27 "HgN/A
Weather by CustomWeather, © 2014

See weather overview